AV279 Weather Reports


time (UTC)temp
C
wind
direction
speed
KPH
gust
KPH
rain 1hr
cm
rain 24hr
cm
rain mn
cm
humidity
%
barometer
mb
20260510093049 16 0 17.7 33.8 0.00 0.00 0.00 66 1014.3
20260510092042 15 23 16.1 25.7 0.00 0.00 0.00 68 1014.4
20260510091112 15 0 8.0 14.5 0.00 0.00 0.00 67 1014.3
20260510090020 16 45 11.3 17.7 0.00 0.00 0.00 67 1014.1
20260510085101 16 23 12.9 22.5 0.00 0.00 0.00 66 1013.9
20260510084020 15 45 16.1 24.1 0.00 0.00 0.00 64 1014.1
20260510083020 15 0 17.7 25.7 0.00 0.00 0.00 67 1014.3
20260510082018 15 23 11.3 24.1 0.00 0.00 0.00 69 1014.2
20260510081040 15 23 9.7 27.4 0.00 0.00 0.00 69 1014.4
20260510080038 15 45 12.9 19.3 0.00 0.00 0.00 68 1014.4
20260510075020 15 45 14.5 22.5 0.00 0.00 0.00 67 1014.7
20260510074018 15 23 19.3 29.0 0.00 0.00 0.00 68 1014.7
20260510073020 15 45 11.3 20.9 0.00 0.00 0.00 69 1014.8
20260510072018 15 23 11.3 22.5 0.00 0.00 0.00 70 1014.8
20260510071052 14 23 16.1 20.9 0.00 0.00 0.00 70 1015.0
20260510070040 14 0 11.3 17.7 0.00 0.00 0.00 71 1015.0
20260510065031 13 45 11.3 20.9 0.00 0.00 0.00 73 1015.0
20260510064020 13 45 11.3 17.7 0.00 0.00 0.00 75 1015.1
20260510063003 13 45 8.0 16.1 0.00 0.00 0.00 76 1015.0
20260510062044 13 338 8.0 16.1 0.00 0.00 0.00 79 1015.0
20260510061020 12 0 6.4 9.7 0.00 0.00 0.00 79 1014.9
20260510060040 12 45 6.4 12.9 0.00 0.00 0.00 81 1014.8
20260510055020 12 45 12.9 17.7 0.00 0.00 0.00 82 1014.7
20260510054019 12 45 8.0 16.1 0.00 0.00 0.00 82 1014.8
20260510053020 12 45 6.4 12.9 0.00 0.00 0.00 83 1014.8
20260510052050 11 45 8.0 12.9 0.00 0.00 0.00 84 1014.9
20260510051031 11 68 3.2 6.4 0.00 0.00 0.00 84 1014.8
20260510050031 11 45 12.9 22.5 0.00 0.00 0.00 85 1014.7
20260510045020 11 45 6.4 17.7 0.00 0.00 0.00 85 1014.7
20260510044020 11 45 6.4 9.7 0.00 0.00 0.00 86 1014.9
20260510043020 11 0 6.4 14.5 0.00 0.00 0.00 85 1014.9
20260510042100 11 315 3.2 6.4 0.00 0.00 0.00 85 1014.8
20260510041019 11 68 4.8 8.0 0.00 0.00 0.00 85 1014.7
20260510040020 11 45 6.4 14.5 0.00 0.00 0.00 84 1014.7
20260510035020 11 23 6.4 16.1 0.00 0.00 0.00 84 1014.5
20260510034041 11 23 8.0 14.5 0.00 0.00 0.00 84 1014.5
20260510033020 11 23 6.4 9.7 0.00 0.00 0.00 84 1014.5
20260510032019 11 90 6.4 14.5 0.00 0.00 0.00 84 1014.6
20260510031040 11 23 6.4 9.7 0.00 0.00 0.00 84 1014.6
20260510030019 11 23 1.6 3.2 0.00 0.00 0.00 85 1014.6
20260510025050 11 23 4.8 6.4 0.00 0.00 0.00 85 1014.6
20260510024020 11 45 6.4 9.7 0.00 0.00 0.00 85 1014.6
20260510023020 12 338 3.2 11.3 0.00 0.00 0.00 84 1014.7
20260510022030 12 23 4.8 6.4 0.00 0.00 0.00 84 1014.7
20260510021019 12 68 3.2 4.8 0.00 0.00 0.00 84 1014.8
20260510020020 12 23 3.2 6.4 0.00 0.00 0.00 84 1014.9
20260510015041 12 45 6.4 12.9 0.00 0.00 0.00 84 1014.9
20260510014041 12 0 9.7 16.1 0.00 0.00 0.00 83 1015.0
20260510013020 12 0 8.0 14.5 0.00 0.00 0.00 83 1015.0
20260510012101 12 0 4.8 8.0 0.00 0.00 0.00 83 1015.1
20260510011019 12 23 4.8 12.9 0.00 0.00 0.00 83 1015.1
20260510010019 12 23 8.0 17.7 0.00 0.00 0.00 82 1015.1
20260510005019 12 45 6.4 9.7 0.00 0.00 0.00 81 1015.2
20260510004019 12 23 6.4 9.7 0.00 0.00 0.00 81 1015.4
20260510003019 12 45 6.4 8.0 0.00 0.00 0.00 81 1015.6
20260510002019 12 45 3.2 4.8 0.00 0.00 0.00 80 1015.6
20260510001019 12 23 6.4 8.0 0.00 0.00 0.00 80 1015.6
20260510000019 12 0 4.8 8.0 0.00 0.00 0.00 79 1015.7
20260509235030 12 23 4.8 8.0 0.00 0.00 0.00 79 1015.7
20260509234019 12 23 6.4 9.7 0.00 0.00 0.00 78 1015.7
20260509233019 12 45 8.0 11.3 0.00 0.00 0.00 78 1015.8
20260509232042 12 23 6.4 8.0 0.00 0.00 0.00 77 1016.0
20260509231213 12 45 4.8 8.0 0.00 0.00 0.00 77 1015.8
20260509230820 12 23 4.8 8.0 0.00 0.00 0.00 77 1015.9
20260509225819 12 45 6.4 12.9 0.00 0.00 0.00 77 1015.9
20260509224819 12 45 9.7 16.1 0.00 0.00 0.00 76 1016.0
20260509223841 12 45 6.4 16.1 0.00 0.00 0.00 75 1016.0
20260509222819 12 23 9.7 16.1 0.00 0.00 0.00 75 1016.0
20260509221819 12 45 6.4 9.7 0.00 0.00 0.00 75 1015.9
20260509220819 12 23 6.4 9.7 0.00 0.00 0.00 74 1016.0
20260509215830 12 23 6.4 12.9 0.00 0.00 0.00 73 1015.9
20260509214830 12 0 9.7 14.5 0.00 0.00 0.00 73 1015.9
20260509213819 12 23 6.4 9.7 0.00 0.00 0.00 72 1016.0
20260509212819 12 45 3.2 6.4 0.00 0.00 0.00 71 1015.9
20260509211819 12 23 3.2 6.4 0.00 0.00 0.00 71 1015.9
20260509210841 13 45 4.8 8.0 0.00 0.00 0.00 71 1015.9
20260509205919 13 45 3.2 6.4 0.00 0.00 0.00 71 1015.9
20260509204819 13 23 3.2 6.4 0.00 0.00 0.00 71 1015.7
20260509203819 13 23 6.4 11.3 0.00 0.00 0.00 71 1015.7
20260509202839 13 23 6.4 12.9 0.00 0.00 0.00 72 1015.7
20260509201839 13 23 6.4 8.0 0.00 0.00 0.00 72 1015.4
20260509200819 13 45 4.8 8.0 0.00 0.00 0.00 72 1015.6
20260509195830 13 45 4.8 8.0 0.00 0.00 0.00 71 1015.6
20260509194819 13 23 4.8 11.3 0.00 0.00 0.00 71 1015.5
20260509193819 13 0 8.0 12.9 0.00 0.00 0.00 71 1015.5
20260509192819 13 23 6.4 11.3 0.00 0.00 0.00 71 1015.4
20260509191819 14 315 4.8 12.9 0.00 0.00 0.00 70 1015.4
20260509190819 14 45 4.8 9.7 0.00 0.00 0.00 69 1015.2
20260509190024 14 23 6.4 9.7 0.00 0.00 0.00 68 1015.2
20260509185150 15 45 8.0 12.9 0.00 0.00 0.00 68 1015.4
20260509184121 15 23 6.4 11.3 0.00 0.00 0.00 67 1015.3
20260509183139 15 45 9.7 14.5 0.00 0.00 0.00 67 1015.3
20260509182119 15 23 6.4 12.9 0.00 0.00 0.00 66 1015.2
20260509181140 15 23 4.8 8.0 0.00 0.00 0.00 65 1015.2
20260509180119 15 23 8.0 16.1 0.00 0.00 0.00 64 1015.2
20260509175140 16 45 11.3 16.1 0.00 0.00 0.00 65 1015.1
20260509174119 16 23 6.4 14.5 0.00 0.00 0.00 64 1015.0
20260509173119 16 0 11.3 27.4 0.00 0.00 0.00 64 1014.9
20260509172119 16 0 14.5 22.5 0.00 0.00 0.00 63 1015.0
20260509171130 16 45 8.0 14.5 0.00 0.00 0.00 62 1015.0
20260509170151 17 23 12.9 24.1 0.00 0.00 0.00 60 1015.0
20260509165130 17 45 11.3 25.7 0.00 0.00 0.00 61 1014.9
20260509164130 17 45 9.7 17.7 0.00 0.00 0.00 61 1015.1
20260509163316 17 23 8.0 14.5 0.00 0.00 0.00 61 1015.0
20260509162919 17 23 9.7 19.3 0.00 0.00 0.00 61 1015.0
20260509162132 17 0 8.0 14.5 0.00 0.00 0.00 61 1015.0
20260509161630 17 45 6.4 11.3 0.00 0.00 0.00 60 1015.1
20260509160629 17 23 8.0 16.1 0.00 0.00 0.00 58 1015.2
20260509155639 18 0 9.7 25.7 0.00 0.00 0.00 55 1015.1
20260509154711 18 23 14.5 19.3 0.00 0.00 0.00 54 1015.1
20260509153629 18 45 9.7 14.5 0.00 0.00 0.00 53 1015.2
20260509152619 18 45 14.5 19.3 0.00 0.00 0.00 54 1015.3
20260509151711 18 0 9.7 19.3 0.00 0.00 0.00 54 1015.3
20260509150618 18 23 14.5 24.1 0.00 0.00 0.00 53 1015.2
20260509145618 18 23 11.3 20.9 0.00 0.00 0.00 53 1015.0
20260509144640 18 23 14.5 27.4 0.00 0.00 0.00 54 1015.1
20260509143649 18 23 12.9 29.0 0.00 0.00 0.00 55 1015.1
20260509142629 19 338 14.5 24.1 0.00 0.00 0.00 55 1015.1
20260509141619 19 23 19.3 35.4 0.00 0.00 0.00 54 1015.4
20260509140619 19 23 11.3 19.3 0.00 0.00 0.00 53 1015.2
20260509135649 20 23 12.9 22.5 0.00 0.00 0.00 53 1015.2
20260509134619 20 23 8.0 17.7 0.00 0.00 0.00 52 1015.4
20260509133639 20 0 12.9 24.1 0.00 0.00 0.00 52 1015.4
20260509132639 21 45 14.5 30.6 0.00 0.00 0.00 50 1015.4
20260509131650 21 23 9.7 19.3 0.00 0.00 0.00 52 1015.4
20260509130620 20 23 12.9 22.5 0.00 0.00 0.00 52 1015.4
20260509125651 21 45 9.7 19.3 0.00 0.00 0.00 50 1015.4
20260509124639 21 45 17.7 30.6 0.00 0.00 0.00 49 1015.4
20260509123640 21 0 16.1 27.4 0.00 0.00 0.00 52 1015.6
20260509122629 21 0 12.9 20.9 0.00 0.00 0.00 52 1015.7
20260509121640 21 338 11.3 22.5 0.00 0.00 0.00 52 1015.8
20260509120618 21 45 11.3 20.9 0.00 0.00 0.00 50 1015.9
20260509115618 21 23 11.3 22.5 0.00 0.00 0.00 51 1015.9
20260509114629 21 0 12.9 22.5 0.00 0.00 0.00 50 1016.0
20260509113619 21 23 16.1 22.5 0.00 0.00 0.00 49 1016.2
20260509112618 21 45 6.4 12.9 0.00 0.00 0.00 50 1016.3
20260509111629 21 45 9.7 17.7 0.00 0.00 0.00 49 1016.5
20260509110621 22 23 11.3 16.1 0.00 0.00 0.00 45 1016.5
20260509105618 21 68 6.4 11.3 0.00 0.00 0.00 47 1016.5
20260509104640 21 23 8.0 17.7 0.00 0.00 0.00 48 1016.6
20260509103631 21 23 8.0 17.7 0.00 0.00 0.00 48 1016.8
20260509102618 20 90 9.7 17.7 0.00 0.00 0.00 48 1016.7
20260509101640 20 338 4.8 6.4 0.00 0.00 0.00 51 1016.7
20260509100639 20 45 11.3 17.7 0.00 0.00 0.00 49 1016.8
20260509095618 20 45 12.9 17.7 0.00 0.00 0.00 48 1016.8
20260509094631 20 158 4.8 8.0 0.00 0.00 0.00 51 1016.9